Location: Baix
(44.7118°N, 4.7648°E)
Time: 03:39:16
(UTC+00:00)

Cosmos 724 - Pass Details

Date: 07 August 2020
Orbit: 855 x 939 km, 65.6° (Epoch: 27 September)

Event Time Altitude Azimuth Distance (km) Brightness Sun altitude
Rises 03:28:20 0° 323° (NW) 3,517 7.4 -10.9°
Reaches altitude 10° 03:30:50 10° 320° (NW) 2,586 6.7 -10.6°
Maximum altitude 03:36:46 63° 241° (WSW) 1,020 4.4 -9.7°
Drops below altitude 10° 03:42:47 10° 162° (SSE) 2,623 6.6 -8.8°
Sets 03:45:21 0° 159° (SSE) 3,570 7.3 -8.5°
